Content
SEND FEEDBACK

Daily
Averages
Monthly
Summary
United States of America

WRIGHTSVILLE BEACH, NORTH CAROLINA


Home > North America > United States > North Carolina
Elevation: 25 feet     Latitude: 34 16N     Longitude: 077 54W

WEATHER
 
SELECT A DAY
Number of Records: 208,628;   Date Range: 1/1/95 - 7/20/14
 
SHARE

PRINT THIS DATA

[ ← Previous Day ]
WEATHER ALMANAC - OCTOBER 12, 2013
[ Next Day → ]
[ °C ]   °F
Weather ElementAverageHighLow
Temperature65.9 °F69.8 °F (3:10 pm)64 °F (12:53 am)
Dewpoint61.4 °F64 °F (11:53 pm)59 °F (7:53 am)
Humidity85.5 %94 % (3:01 am)73 % (3:10 pm)
Barometer30.00 in30.05 in (9:53 pm)29.94 in (3:53 am)
Wind Speed5.4 mph10.4 mph (11:53 am)
Weather ElementAverage
Visibility10 mi
Wind DirectionWSW (263.5 °)

Weather ElementTotal
Precipitation---
Cooling Degree Days1.9 (Base 65)
Growing Degree Days16.9 (Base 50)
Averaged from 34 records on October 12, 2013
WEATHER CONDITIONS BREAKOUT
WIND DIRECTION BREAKOUT
WEATHER BY HOUR - OCTOBER 12, 2013
[ °C ]   °F
Local TimeTemperatureDewpointHumidityBarometerVisibilityWind DirectionWind SpeedGust SpeedPrecipitationEventsConditions
12:53 AM64.0 °F61.0 °F90 %29.96 in10.0 miCalmOvercast
1:40 AM64.4 °F60.8 °F88 %29.96 in10.0 miCalmOvercast
1:53 AM64.0 °F61.0 °F90 %29.95 in10.0 miCalmOvercast
2:53 AM64.9 °F62.1 °F90 %29.95 in10.0 miNW (310°)3.5 mphOvercast
3:01 AM64.4 °F62.6 °F94 %29.95 in10.0 miWNW (300°)3.5 mphOvercast
3:53 AM64.9 °F62.1 °F90 %29.94 in10.0 miNW (320°)5.8 mphOvercast
4:26 AM64.4 °F60.8 °F88 %29.94 in10.0 miNNW (330°)3.5 mphMostly Cloudy
4:53 AM64.0 °F61.0 °F90 %29.95 in10.0 miCalmMostly Cloudy
5:53 AM64.0 °F61.0 °F90 %29.96 in10.0 miNNW (330°)4.6 mphOvercast
6:53 AM64.0 °F61.0 °F90 %29.98 in10.0 miNNW (340°)3.5 mphOvercast
7:49 AM64.4 °F60.8 °F88 %29.99 in10.0 miNW (310°)6.9 mphOvercast
7:53 AM64.0 °F59.0 °F84 %29.99 in10.0 miNW (320°)8.1 mphOvercast
8:53 AM64.0 °F60.1 °F87 %30.01 in10.0 miNW (310°)6.9 mphOvercast
9:25 AM64.4 °F60.8 °F88 %30.01 in10.0 miNW (320°)9.2 mphOvercast
9:53 AM64.0 °F60.1 °F87 %30.01 in10.0 miNW (320°)9.2 mphOvercast
10:53 AM66.0 °F60.1 °F81 %30.01 in10.0 miNW (310°)8.1 mphOvercast
11:35 AM66.2 °F60.8 °F83 %30.02 in10.0 miNW (310°)6.9 mphOvercast
11:53 AM66.9 °F60.1 °F79 %30.02 in10.0 miWNW (300°)10.4 mphOvercast
12:53 PM66.9 °F61.0 °F81 %30.02 in10.0 miWNW (290°)9.2 mphOvercast
1:53 PM66.9 °F60.1 °F79 %30.00 in10.0 miNW (320°)9.2 mphOvercast
2:53 PM68.0 °F61.0 °F78 %30.00 in10.0 miNNW (340°)9.2 mphOvercast
3:10 PM69.8 °F60.8 °F73 %30.00 in10.0 miNNW (330°)9.2 mphOvercast
3:53 PM69.1 °F61.0 °F75 %30.00 in10.0 miNNW (330°)6.9 mphOvercast
4:53 PM68.0 °F62.1 °F81 %30.00 in10.0 miNNW (330°)8.1 mphOvercast
5:53 PM68.0 °F62.1 °F81 %30.01 in10.0 miNW (320°)8.1 mphOvercast
6:03 PM68.0 °F62.6 °F83 %30.02 in10.0 miNW (310°)8.1 mphOvercast
6:41 PM66.2 °F62.6 °F88 %30.03 in10.0 miNNW (330°)5.8 mphOvercast
6:53 PM66.9 °F62.1 °F84 %30.03 in10.0 miNNW (330°)4.6 mphOvercast
7:53 PM66.9 °F63.0 °F87 %30.04 in10.0 miCalmOvercast
8:53 PM66.9 °F63.0 °F87 %30.04 in10.0 miNNW (330°)3.5 mphOvercast
9:22 PM66.2 °F62.6 °F88 %30.04 in10.0 miNW (310°)3.5 mphOvercast
9:53 PM66.9 °F63.0 °F87 %30.05 in10.0 miNW (310°)3.5 mphOvercast
10:53 PM66.9 °F63.0 °F87 %30.05 in10.0 miCalmOvercast
11:53 PM66.9 °F64.0 °F90 %30.04 in10.0 miNorth (350°)3.5 mphOvercast
Hourly data recorded from KILM, located miles away from Wrightsville Beach, North Carolina







STORIES FROM OUR PARTNERS